Regional Weather Roundup
Issued by NWS Upton, NY

Current Version | Previous Version | Graphics & Text | Print | Product List | Glossary Off
Versions: 1 2 3 4 5 6 7 8 9 10 11 12 13 14 15 16 17 18 19 20 21 22 23 24 25 26 27 28 29 30 31 32 33 34 35 36 37 38 39 40 41 42 43 44 45 46 47 48 49 50

000
ASUS41 KOKX 091908
RWROKX

REGIONAL WEATHER ROUNDUP
NATIONAL WEATHER SERVICE NEW YORK NY
200 PM EST FRI DEC 09 2016

NOTE: "FAIR" INDICATES FEW OR NO CLOUDS BELOW 12,000 FEET WITH NO
SIGNIFICANT WEATHER AND/OR OBSTRUCTIONS TO VISIBILITY.

NYZ071-072-176-178-NJZ106-104-092000-
NEW YORK CITY METRO AREA

CITY           SKY/WX    TMP DP  RH WIND       PRES   REMARKS
Central Park     N/A     39  14  35 MISG        N/A
Wall St Helipt PTCLDY    44  19  36 W8        30.11S
Bronx Bot Gard   N/A     39  14  35 W14       30.09F WCI  31
LaGuardia APRT MOSUNNY   41  17  38 NW26G35   30.09R
Kennedy INTL   MOSUNNY   42  11  28 NW25G32   30.10S
Breezy Point     N/A     37 N/A N/A NW16G24     N/A  WCI  28
Newark/Liberty MOSUNNY   38  12  34 W18G33    30.11S WCI  28
Teterboro      CLOUDY    40  13  33 NW21G29   30.09S WCI  30
$$

NYZ177-179-078>081-092000-
LONG ISLAND NEW YORK

CITY           SKY/WX    TMP DP  RH WIND       PRES   REMARKS
Jones Beach      N/A     37 N/A N/A NW23G30     N/A  WCI  26
Matinecock PT  NOT AVBL
Farmingdale    MOSUNNY   40  12  32 NW15G28   30.08S WCI  32
MacArthur/ISP  PTSUNNY   39  15  37 NW18G31   30.06R WCI  30
Shirley        MOSUNNY   37  16  42 NW21G32   30.06S WCI  26
Westhampton    CLOUDY    38  16  40 NW12G22   30.05  WCI  30
Southampton      N/A     39  23  52 NW12      30.01R WCI  32
Bridgehampton  NOT AVBL
East Hampton   CLOUDY    38  15  37 NW9G21    30.03R WCI  32
Montauk          N/A     38  18  44 NW10G23   30.03S WCI  31
$$

NYZ052-065-067-092000-
HUDSON VALLEY

CITY           SKY/WX    TMP DP  RH WIND       PRES   REMARKS
White Plains   PTSUNNY   37  14  38 NW25G36   30.05S WCI  25
Newburgh       PTSUNNY   37  18  44 W23G37    30.07S WCI  26
Montgomery     CLOUDY    36  16  44 NW15G28   30.08R WCI  27
Poughkeepsie   CLOUDY    36  11  35 W18G31    30.07R WCI  26
Albany         MOSUNNY   29   9  43 NW23G32   30.10R WCI  15
$$

NJZ001-105-106-008-010-013-015-019>022-104-092000-
NEW JERSEY

CITY           SKY/WX    TMP DP  RH WIND       PRES   REMARKS
Newark/Liberty MOSUNNY   38  12  34 W18G33    30.11S WCI  28
Teterboro      CLOUDY    40  13  33 NW21G29   30.09S WCI  30
Caldwell       MOSUNNY   39  12  33 NW21G28   30.11S WCI  29
Somerville     CLOUDY    37  17  44 W10G20    30.13R WCI  30
Linden           N/A    N/A N/A N/A NW14G28   30.12S
Sussex         MOSUNNY   35  13  40 NW12G31   30.10S WCI  27
Andover          N/A     35  12  38 NW8G29    30.11S WCI  29
Trenton        CLOUDY    37  16  42 NW10G22   30.16S WCI  30
Millville      PTSUNNY   37  19  48 NW21G31   30.22R WCI  26
Atlantic City  CLOUDY    37  17  44 W20G28    30.19R WCI  27
Wrightstown    CLOUDY    37  17  45 NW14      30.14S WCI  28
Toms River     CLOUDY    38  18  44 W16G28    30.16  WCI  29
Belmar         CLOUDY    39  17  41 W21G32    30.13S WCI  29
$$

PAZ047>061-062-071-092000-
EASTERN PENNSYLVANIA

CITY           SKY/WX    TMP DP  RH WIND       PRES   REMARKS
Philadelphia   PTSUNNY   37  17  44 NW13G24   30.22R WCI  29
Allentown      CLOUDY    36  17  46 NW12G23   30.16S WCI  28
Scranton       CLOUDY    33  13  43 NW12G24   30.13R WCI  24
$$

CTZ002-004>006-009-010-012-RIZ004-006-007-MAZ004-011-015-092000-
SOUTHERN NEW ENGLAND
 IN CT

CITY           SKY/WX    TMP DP  RH WIND       PRES   REMARKS
Bradley INTL   PTSUNNY   36  13  38 NW16G25   30.03R WCI  26
Hartford       CLOUDY    37  14  38 NW16G28   30.04S WCI  28
Danbury        PTSUNNY   35  15  44 NW14G23   30.05S WCI  26
Wtrbury/Oxford NOT AVBL
Bridgeport     MOSUNNY   39  17  41 NW17G26   30.06R WCI  30
Meriden        CLOUDY    39  16  39 NW9       30.04R WCI  33
New Haven      PTSUNNY   38  14  37 NW12G23   30.04S WCI  30
Chester          N/A     36  14  41 NW13      30.02R WCI  27
Groton         PTSUNNY   41  16  36 NW20G29   30.01S
Wilimantic     CLOUDY    36  15  42 NW16G26   30.03R WCI  26

 IN RI

CITY           SKY/WX    TMP DP  RH WIND       PRES   REMARKS
Providence     MOSUNNY   36  13  38 W22       29.99R WCI  25
Block Island   MOSUNNY   38  18  44 NW14G23   30.00S WCI  30
Westerly       SUNNY     37  11  34 NW13G25   30.01S WCI  29
 IN MA

CITY           SKY/WX    TMP DP  RH WIND       PRES   REMARKS
Boston         MOSUNNY   35  11  36 NW23G29   29.96R WCI  23
Worcester      SUNNY     30  10  43 W20G30    29.93R WCI  17
Westfield      PTSUNNY   35  15  44 N13G30    30.02R WCI  26
Provincetown   PTSUNNY   37  17  44 W20G32    29.94R WCI  27
Nantucket      MOSUNNY   38  14  37 NW23G33   29.95R WCI  27
$$

ANZ330-335-338-340-345-350-353-355-092000-
COASTAL MARINE OBSERVATIONS


STATION/POSITION TIME  SKY/WX   TEMP    WIND        PRES    VSBY  WAVE
                                AIR SEA DIR/SP/G                  HT/PER
                 (UTC)          (F)     (DEG/KT/KT) (MB)    (MI)  (FT/S)
NY HARB ENTRANCE 1750            39 51  300/ 23/ 29 1018.5          4/ 5
20 S FIRE ISLAND 1750            38 53  300/ 21/ 29 1018.3          6/ 6
GREAT SOUTH BAY  1830            38 42                N/A
23 SSW MONTAUK P 1750            38 54  290/ 21/ 27 1017.0          6/ 6
15 E BARNEGAT LI 1830               52                N/A           5/ 5
HUDSON CANYON    1750            40 56              1018.6          9/ 8
KINGS POINT      1842            39 46              1018.8
EXECUTION ROCKS  1845            41     290/ 21/ 31   N/A
CENTRAL LI SOUND 1830            39 49  310/ 19/ 29   N/A           3/ 4
EASTERN LI SOUND NOT AVBL
ROBBINS REEF     1848            38     300/ 30/ 35 1019.2
$$


>>>>>>>>>>>>>>>>>>>>>>>>>>>> KEY <<<<<<<<<<<<<<<<<<<<<<<<<<<
>                                                          <
>     SKY/WX - Sky Condition/Present Weather               <
>     TMP    - Temperature in Fahrenheit                   <
>     DP     - Dew Point in Fahrenheit                     <
>     RH     - Relative Humidity in Percent                <
>     WIND   - Direction (from) and Speed in MPH           <
>     PRES   - Mean Sea Level Pressure (inches of Hg)      <
>     WCI    - Wind Chill Index                            <
>     VSB    - VISIBILITY IN MILES                         <
>     HX     - HEAT INDEX                                  <
>     TC     - TEMPERATURE IN CELSIUS                      <
>     VRB    - VARIABLE WIND DIRECTION                     <
>                                                          <
>>>>>>>>>>>>>>>>>>>>>>>>>>>> KEY <<<<<<<<<<<<<<<<<<<<<<<<<<<



USA.gov is the U.S. government's official web portal to all federal, state and local government web resources and services.